This is the latest recevied weather packets stored in our database for station/object XE2MDH-15. If no packets are shown the sender has not sent any weather packets the latest 10 day(s).
| Time | Temp. | Humidity | Pressure | Rain* | Wind** | Luminosity | Snow |
|---|---|---|---|---|---|---|---|
| 1777732324 | 11.67° C | 27% | 809.4 hPa | - | - | - | - |
| 1777731023 | 10° C | 27% | 809.2 hPa | - | - | - | - |
| 1777729591 | 7.22° C | 26% | 809 hPa | - | - | - | - |
| 1777727939 | 5.56° C | 26% | 808.8 hPa | - | - | - | - |
| 1777722575 | 3.89° C | 24% | 807.7 hPa | - | - | - | - |
| 1777705178 | 9.44° C | 20% | 807 hPa | - | - | - | - |
| 1777703774 | 15.56° C | 21% | 807.1 hPa | - | - | - | - |
| 1777702874 | 15.56° C | 21% | 807.1 hPa | - | - | - | - |
| 1777701974 | 16.67° C | 21% | 807.3 hPa | - | - | - | - |
| 1777701073 | 17.22° C | 21% | 807.3 hPa | - | - | - | - |
| 1777700173 | 18.33° C | 21% | 807.3 hPa | - | - | - | - |
| 1777699273 | 18.33° C | 21% | 807.3 hPa | - | - | - | - |
| 1777698373 | 18.89° C | 21% | 807.5 hPa | - | - | - | - |
| 1777697473 | 19.44° C | 21% | 807.3 hPa | - | - | - | - |
| 1777696572 | 19.44° C | 21% | 807.1 hPa | - | - | - | - |
| 1777695672 | 20° C | 22% | 807.2 hPa | - | - | - | - |
| 1777694772 | 20.56° C | 22% | 807.1 hPa | - | - | - | - |
| 1777693872 | 20.56° C | 22% | 806.6 hPa | - | - | - | - |
| 1777692972 | 21.11° C | 22% | 806.8 hPa | - | - | - | - |
| 1777692072 | 21.11° C | 22% | 806.6 hPa | - | - | - | - |
| 1777691172 | 21.67° C | 22% | 806.3 hPa | - | - | - | - |
| 1777690271 | 22.22° C | 23% | 806.2 hPa | - | - | - | - |
| 1777689371 | 22.78° C | 23% | 806 hPa | - | - | - | - |
| 1777688471 | 22.78° C | 24% | 805.6 hPa | - | - | - | - |
| 1777687571 | 22.78° C | 25% | 805.2 hPa | - | - | - | - |
* Rain since midnight (hover to see other rain measurements)
** Current wind speed in m/s (hover to see current wind gust speed)